カタログに戻る

STARLINK-11657

運用中通信VLEO
NORAD 63558·PAYLOAD·🇺🇸 United States

打ち上げ Apr 13, 2025 から Cape Canaveral Space Force Station

Loading…

次のパス (今後24時間)

TLE

最新Source: CelesTrak SupGP

元期: Sep 14, 2026, 22:22 UTC

1 63558C 25075L   26257.93243056  .00039024  00000+0  30310-3 0  2574
2 63558  43.0008  93.1942 0001617 270.4485 341.3165 15.70818784    10

AllMySatでSTARLINK-11657をリアルタイム追跡

Download on the App Store